Saint-Hubert, Quebec

11:43 PM EDT on September 28, 2016 (GMT -0400)
Montreal / St-Hubert

Weather History for CYHU - September, 2013

Change the Weather History Date:

Wednesday, September 4, 2013

  Actual Average Record
Temperature  
Mean Temperature 60 °F -  
Max Temperature 66 °F 72 °F 91 °F (1999)
Min Temperature 55 °F 53 °F 44 °F (1997)
Degree Days  
Heating Degree Days 4    
Growing Degree Days 10 (Base 50)    
Moisture  
Dew Point 55 °F    
Average Humidity 78    
Maximum Humidity 88    
Minimum Humidity 67    
Precipitation  
Precipitation 0.00 in - - ()
Sea Level Pressure  
Sea Level Pressure 29.84 in    
Wind  
Wind Speed 12 mph ()    
Max Wind Speed 21 mph    
Max Gust Speed 29 mph    
Visibility 9.1 miles    
Events Rain    
Averages and records for this station are not official NWS values.
T = Trace of Precipitation, MM = Missing Value Source: Averaged Metar Reports

Daily Weather History Graph

Daily Weather History Graph

Search for Another Location

Airport or City:

Trip Planner

Search our weather history database for the weather conditions in past years. The results will help you decide how hot, cold, wet, or windy it might be!

Date:

Astronomy

Sep. 04, 2013 Rise Set
Actual Time 6:18 AM EDT 7:25 PM EDT
Civil Twilight 5:48 AM EDT 7:55 PM EDT
Nautical Twilight 5:12 AM EDT 8:31 PM EDT
Astronomical Twilight 4:33 AM EDT 9:10 PM EDT
Moon 5:28 AM EDT (9/4) 6:41 PM EDT (9/4)
Length of Visible Light 14h 07m
Length of Day
13h 06m
Waning Crescent, 1% of the Moon is Illuminated
Sep 4
Waning Crescent
Sep 5
New
Sep 12
First Quarter
Sep 19
Full
Sep 26
Last Quarter

Hourly Weather History & Observations

Time (EDT) Temp. Dew Point Humidity Pressure Visibility Wind Dir Wind Speed Gust Speed Precip Events Conditions
12:00 AM 62.6 °F 57.2 °F 82% 29.75 in 9.0 mi West 13.8 mph 19.6 mph N/A   Mostly Cloudy
1:00 AM 62.6 °F 55.4 °F 77% 29.78 in 9.0 mi WSW 13.8 mph - N/A   Scattered Clouds
2:00 AM 62 °F 56 °F 76% 29.79 in 10 mi West 11.5 mph - -  
2:00 AM 60.8 °F 57.2 °F 88% 29.78 in 9.0 mi West 10.4 mph 17.3 mph N/A   Partly Cloudy
3:00 AM 62.6 °F 55.4 °F 77% 29.78 in 9.0 mi WSW 16.1 mph 21.9 mph N/A   Clear
4:00 AM 62.6 °F 55.4 °F 77% 29.78 in 9.0 mi WSW 16.1 mph - N/A   Overcast
5:00 AM 60.8 °F 55.4 °F 82% 29.78 in 9.0 mi WSW 13.8 mph - N/A   Scattered Clouds
6:00 AM 59.0 °F 55.4 °F 88% 29.78 in 9.0 mi WSW 13.8 mph - N/A   Clear
7:00 AM 59.0 °F 55.4 °F 88% 29.79 in 9.0 mi SW 13.8 mph - N/A   Clear
7:40 AM 60.8 °F 55.4 °F 82% 29.79 in 9.0 mi SW 13.8 mph 19.6 mph N/A   Mostly Cloudy
8:00 AM 61 °F 56 °F 80% 29.79 in 10 mi SW 16.1 mph - -  
8:00 AM 60.8 °F 57.2 °F 88% 29.79 in 9.0 mi SW 16.1 mph 23.0 mph N/A   Mostly Cloudy
8:48 AM 62.6 °F 57.2 °F 82% 29.79 in 9.0 mi WSW 20.7 mph 26.5 mph N/A   Mostly Cloudy
9:00 AM 62.6 °F 57.2 °F 82% 29.79 in 9.0 mi SW 19.6 mph 27.6 mph N/A   Mostly Cloudy
10:00 AM 62.6 °F 55.4 °F 77% 29.82 in 9.0 mi WSW 19.6 mph 28.8 mph N/A   Overcast
11:00 AM 62.6 °F 55.4 °F 77% 29.84 in 9.0 mi West 16.1 mph 27.6 mph N/A   Overcast
12:00 PM 62.6 °F 55.4 °F 77% 29.85 in 9.0 mi WSW 18.4 mph - N/A   Overcast
12:37 PM 62.6 °F 57.2 °F 82% 29.86 in 9.0 mi West 17.3 mph 24.2 mph N/A   Overcast
12:45 PM 62.6 °F 57.2 °F 82% 29.85 in 9.0 mi WSW 15.0 mph 20.7 mph N/A   Overcast
1:00 PM 62.6 °F 57.2 °F 82% 29.86 in 9.0 mi West 17.3 mph - N/A   Overcast
1:35 PM 62.6 °F 57.2 °F 82% 29.86 in 9.0 mi West 15.0 mph - N/A Rain Light Rain
1:40 PM 62.6 °F 57.2 °F 82% 29.87 in 9.0 mi West 15.0 mph - N/A Rain Light Rain
1:51 PM 62.6 °F 57.2 °F 82% 29.87 in 9.0 mi West 11.5 mph 18.4 mph N/A   Overcast
2:00 PM 63 °F 57 °F 74% 29.87 in 10 mi West 11.5 mph - -   Overcast
2:00 PM 62.6 °F 57.2 °F 82% 29.87 in 9.0 mi West 11.5 mph - N/A   Overcast
2:14 PM 64.4 °F 57.2 °F 77% 29.86 in 9.0 mi West 12.7 mph - N/A   Overcast
3:00 PM 66.2 °F 55.4 °F 68% 29.86 in 7.0 mi West 16.1 mph - N/A   Overcast
4:00 PM 66.2 °F 55.4 °F 68% 29.86 in 9.0 mi West 13.8 mph - N/A   Overcast
5:00 PM 66.2 °F 55.4 °F 68% 29.86 in 9.0 mi West 11.5 mph 18.4 mph N/A   Clear
6:00 PM 64.4 °F 53.6 °F 68% 29.86 in 9.0 mi West 11.5 mph - N/A   Partly Cloudy
7:00 PM 62.6 °F 53.6 °F 72% 29.87 in 9.0 mi West 9.2 mph - N/A   Partly Cloudy
8:00 PM 61 °F 53 °F 67% 29.89 in 10 mi WNW 6.9 mph - -  
8:00 PM 60.8 °F 53.6 °F 77% 29.89 in 9.0 mi WNW 5.8 mph - N/A   Partly Cloudy
9:00 PM 57.2 °F 48.2 °F 72% 29.92 in 9.0 mi NW 8.1 mph - N/A   Clear
10:00 PM 55.4 °F 46.4 °F 72% 29.92 in 9.0 mi North 2.3 mph - N/A   Clear
11:00 PM 55.4 °F 46.4 °F 72% 29.93 in 9.0 mi NNW 4.6 mph - N/A   Clear